Location: Pasadena, ca
(34.1243°N, 118.1037°W)
Time: 13:56:55
(UTC-08:00)

OTV 5 (USA 277) - Pass Details

Date: 17 November 2017
Orbit: 404 x 417 km, 43.0° (Epoch: 07 September)

Event Time Altitude Azimuth Distance (km) Brightness Sun altitude
Exits shadow 05:58:37 - 307° (NW) 1,668 ? -6.4°
Reaches altitude 10° 05:59:09 10° 310° (NW) 1,455 ? -6.3°
Maximum altitude 06:02:18 42° 23° (NNE) 584 ? -5.7°
Drops below altitude 10° 06:05:27 10° 97° (E) 1,451 ? -5.1°
Sets 06:07:36 0° 104° (ESE) 2,308 ? -4.7°
